Weather Roundup
Issued by NWS Springfield, MO

Home | Current Version | Previous Version | Graphics & Text | Print | Product List | Glossary On
Versions: 1 2 3 4 5 6 7 8 9 10 11 12 13 14 15 16 17 18 19 20 21 22 23 24 25 26 27 28 29 30 31 32 33 34 35 36 37 38 39 40 41 42 43 44 45 46 47 48 49 50
000
NZUS99 KSGF 210207
HRRSGF

HOURLY WEATHER
NATIONAL WEATHER SERVICE SPRINGFIELD MO
900 PM CDT THU JUL 20 2017

......SGF CWA......

CITY           SKY/WX    TMP DP  RH WIND       PRES   REMARKS
SPRINGFIELD    CLEAR     85  72  65 S5        30.03R HX  91
JOPLIN         CLEAR     86  74  67 S3        30.01S HX  94
WEST PLAINS    CLEAR     85  72  65 S6        30.06R HX  91
ROLLA          CLEAR     83  72  69 S6        30.00R
OSAGE BEACH    CLEAR     83  76  79 SW5       29.99S HX  91
BRANSON        PTCLDY    84  72  65 CALM      30.05S

......SURROUNDING SGF CWA......

CITY           SKY/WX    TMP DP  RH WIND       PRES   REMARKS
CHANUTE        CLEAR     88  73  61 SE10      29.98R HX  95
PARSONS        CLEAR     87  73  62 S6        29.99R HX  94
COFFEYVILLE    CLEAR     88  74  63 SE10      29.97S HX  96
EMPORIA        CLEAR     88  70  55 SE10      29.95R HX  93
GROVE OK       CLEAR     86  73  66 CALM      30.02S HX  93
ROGERS AR      CLEAR     86  70  58 SW6       30.05F HX  90
SILOAM SPRINGS CLEAR     82  70  65 S5        30.04S
HARRISON AR    CLEAR     82  73  74 SW3       30.06R
NEAR YELLVILLE CLEAR     88  70  55 CALM      30.00S HX  92

......KANSAS AND MISSOURI......

CITY           SKY/WX    TMP DP  RH WIND       PRES   REMARKS
KANSAS CTY INT PTCLDY    85  75  72 S10       29.94F HX  93
DOWNTOWN KC    CLEAR     92  75  57 S12       29.93S HX 103
COLUMBIA       CLEAR     88  74  63 CALM      29.97F HX  96
ST JOSEPH      CLEAR     85  79  82 S7        29.91F HX  98
ST LOUIS       PTCLDY    94  72  48 W6        29.96S HX 102
SPIRIT OF STL  PTCLDY    84  77  79 CALM      29.95S HX  94
KIRKSVILLE     CLEAR     83  78  85 S5        29.95F HX  93
WICHITA        PTCLDY    92  66  42 SE16      29.92S HX  94
TOPEKA         CLEAR     90  75  61 SE14      29.92S HX 100
OLATHE         CLEAR     83  76  79 S6        29.97S HX  91

......TENNESSEE......

CITY           SKY/WX    TMP DP  RH WIND       PRES   REMARKS
MEMPHIS        PTCLDY    85  79  82 CALM      30.03R HX  98
NASHVILLE      PTCLDY    86  72  62 CALM      30.04R HX  92

......ARKANSAS.......

CITY           SKY/WX    TMP DP  RH WIND       PRES   REMARKS
FAYETTEVILLE   CLEAR     79  76  90 CALM      30.06R
FT SMITH       CLOUDY    90  74  59 SE5       29.99R HX  99
LITTLE ROCK    PTCLDY    86  78  77 SE6       30.01R HX  98

......OKLAHOMA.......

CITY           SKY/WX    TMP DP  RH WIND       PRES   REMARKS
TULSA          CLEAR     92  70  48 S9        29.96R HX  97
PONCA CITY     CLEAR     92  67  43 SE14      29.93S HX  95
MCALESTER      CLEAR     87  74  64 SE5       30.00S HX  95
OKLAHOMA CITY  PTCLDY    89  66  46 S9        29.98R HX  91

......IOWA............

CITY           SKY/WX    TMP DP  RH WIND       PRES   REMARKS
DES MOINES     CLOUDY    92  76  59 VRB3      29.90S HX 104
QUAD CITIES    CLOUDY    85  77  77 E12       29.94R HX  95

......ILLINOIS........

CITY           SKY/WX    TMP DP  RH WIND       PRES   REMARKS
QUINCY         CLEAR     87  75  67 S5        29.94S HX  96
CHICAGO        PTCLDY    78  69  73 E6        29.97R



USA.gov is the U.S. government's official web portal to all federal, state and local government web resources and services.